Back to catalog

CZ-4C R/B

AliveLEO
NORAD 47537·ROCKET BODY·🇨🇳 China

Launched Jan 29, 2021 from Jiuquan Satellite Launch Center

Loading…

Next Passes (next 24 hours)

TLE

FreshSource: Space-Track

Epoch: Sep 14, 2026, 10:42 UTC

1 47537U 21007F   26257.44633548 -.00000033  00000-0  53055-4 0  9994
2 47537  63.4462  69.3946 0311218   1.3692 358.8127 13.68051518281000

Track CZ-4C R/B in real time with AllMySat

Download on the App Store